sat.trackr.live / text

‹ back to catalog

STARLINK-37837

NORAD 69665 · 2026-143S

PAYLOAD ACTIVE UNKNOWN

§ Identity

Operator
Country
US
Launch date
2026-06-21
Launch site
AFWTR
Launch vehicle
Mass (kg)
RCS (m²)

Purposes: comms

External: N2YO · Heavens-Above · Gunter

§ Orbital elements

Epoch: 2026-09-19T13:31:40.303488Z

Period
93.91 min
Inclination
97.2842°
Eccentricity
0.0000413
Mean motion
15.33453861 rev/d
Perigee alt
465.2 km
Apogee alt
465.8 km
Semi-major
6,843.7 km
B*
3.4318e-4
RAAN
305.6837°
Arg perigee
89.0733°
Mean anomaly
271.0557°
Rev number
1,499

§ Raw data

STARLINK-378371 69665U 26143S   26262.56366092  .00011023  00000+0  34318-3 0  99912 69665  97.2842 305.6837 0000413  89.0733 271.0557 15.33453861 14995

JSON: /api/v1/satellites/69665 · /tle

For live sub-satellite position, see the globe view (requires WebGL).

§ Visibility from observer

Set your observer location to see the next 7 days of passes ≥ 10°. The values pass through the URL so the page stays shareable.

No JS? Fill the form by hand. The geolocation button needs JavaScript.